{"data":{"norad_id":58866,"epoch":"2026-09-20T14:11:59.784288Z","epoch_age_seconds":144613,"freshness":"FRESH","line1":"1 58866U 24019P   26263.59166417  .00000316  00000+0  21020-4 0  9995","line2":"2 58866  43.0010 227.9191 0001013 278.8802  81.1935 15.27577228148875","mean_motion":15.27577228,"eccentricity":0.0001013,"inclination_deg":43.001,"raan_deg":227.9191,"arg_perigee_deg":278.8802,"mean_anomaly_deg":81.1935,"bstar":2.102e-5,"rev_number":14887,"period_min":94.266919773695,"perigee_km":482.36235742507,"apogee_km":483.75243540978,"semimajor_km":6861.1943964174,"source":"CELESTRAK","updated_at":"2026-09-21T09:00:33.989584Z"}}